Weather History for KDUH - August, 2013

Change the Weather History Date:

Tuesday, August 6, 2013

  Actual Average (KTOL) Record (KTOL)
Temperature  
Mean Temperature 70 °F 72 °F  
Max Temperature 78 °F 83 °F 103 °F (1918)
Min Temperature 62 °F 62 °F 45 °F (1994)
Degree Days  
Heating Degree Days 0 0  
Month to date heating degree days 0  
Since 1 June heating degree days 38  
Since 1 July heating degree days 3  
Cooling Degree Days 5 8  
Month to date cooling degree days 48  
Year to date cooling degree days 536  
Since 1 June cooling degree days 483  
Growing Degree Days 20 (Base 50)    
Moisture  
Dew Point 60 °F    
Average Humidity 72    
Maximum Humidity 88    
Minimum Humidity 54    
Precipitation  
Precipitation 0.00 in 0.11 in 1.98 in (1955)
Month to date precipitation 0.66  
Year to date precipitation 20.83  
Snow  
Snow 0.00 in 0.00 in - ()
Month to date snowfall 0.0  
Since 1 June snowfall 0.0  
Since 1 July snowfall 0.0  
Snow Depth -    
Sea Level Pressure  
Sea Level Pressure 29.96 in    
Wind  
Wind Speed 3 mph (South)    
Max Wind Speed 10 mph    
Max Gust Speed 17 mph    
Visibility 10 miles    
Events Rain    
T = Trace of Precipitation, MM = Missing Value Source: NWS Daily Summary

Daily Weather History Graph

Daily Weather History Graph

Search for Another Location

Airport or City:

Trip Planner

Search our weather history database for the weather conditions in past years. The results will help you decide how hot, cold, wet, or windy it might be!

Date:

Astronomy

Aug. 06, 2013 Rise Set
Actual Time 6:34 AM EDT 8:46 PM EDT
Civil Twilight 6:03 AM EDT 9:16 PM EDT
Nautical Twilight 5:25 AM EDT 9:54 PM EDT
Astronomical Twilight 4:43 AM EDT 10:36 PM EDT
Moon 6:25 AM EDT (8/6) 8:19 PM EDT (8/6)
Length of Visible Light 15h 13m
Length of Day
14h 12m
Waning Crescent, 0% of the Moon is Illuminated
Aug 6
Waning Crescent
Aug 6
New
Aug 14
First Quarter
Aug 20
Full
Aug 28
Last Quarter

Hourly Weather History & Observations

Time (EDT) Temp. Dew Point Humidity Pressure Visibility Wind Dir Wind Speed Gust Speed Precip Events Conditions
12:15 AM 64.4 °F 55.4 °F 73% 29.99 in 10.0 mi SE 3.5 mph - N/A   Mostly Cloudy
12:35 AM 64.4 °F 55.4 °F 73% 29.99 in 10.0 mi SE 3.5 mph - N/A   Overcast
12:55 AM 64.4 °F 57.2 °F 77% 29.99 in 10.0 mi SSE 3.5 mph - N/A   Overcast
1:15 AM 64.4 °F 57.2 °F 77% 29.99 in 10.0 mi SE 3.5 mph - N/A   Overcast
1:35 AM 66.2 °F 57.2 °F 73% 29.99 in 10.0 mi Calm Calm - N/A   Overcast
1:55 AM 66.2 °F 57.2 °F 73% 29.98 in 10.0 mi Calm Calm - N/A   Mostly Cloudy
2:15 AM 64.4 °F 57.2 °F 77% 29.98 in 10.0 mi Calm Calm - N/A   Scattered Clouds
2:35 AM 64.4 °F 57.2 °F 77% 29.98 in 10.0 mi Calm Calm - N/A   Overcast
2:55 AM 64.4 °F 59.0 °F 83% 29.98 in 10.0 mi Calm Calm - N/A Rain Light Rain
3:15 AM 64.4 °F 59.0 °F 83% 29.97 in 10.0 mi Calm Calm - N/A   Overcast
3:35 AM 62.6 °F 59.0 °F 88% 29.97 in 10.0 mi Calm Calm - N/A   Overcast
3:55 AM 62.6 °F 59.0 °F 88% 29.97 in 10.0 mi Calm Calm - N/A   Overcast
4:15 AM 64.4 °F 59.0 °F 83% 29.97 in 10.0 mi SSE 3.5 mph - N/A   Overcast
4:35 AM 64.4 °F 59.0 °F 83% 29.97 in 10.0 mi SSE 3.5 mph - N/A   Overcast
4:55 AM 64.4 °F 59.0 °F 83% 29.97 in 10.0 mi Calm Calm - N/A   Overcast
5:15 AM 64.4 °F 59.0 °F 83% 29.97 in 10.0 mi SSE 3.5 mph - N/A   Overcast
5:35 AM 64.4 °F 59.0 °F 83% 29.97 in 10.0 mi SE 3.5 mph - N/A   Overcast
5:55 AM 64.4 °F 59.0 °F 83% 29.97 in 10.0 mi Calm Calm - N/A   Overcast
6:15 AM 64.4 °F 59.0 °F 83% 29.95 in 10.0 mi SSE 3.5 mph - N/A   Overcast
6:35 AM 64.4 °F 59.0 °F 83% 29.96 in 10.0 mi Calm Calm - N/A   Overcast
6:55 AM 64.4 °F 59.0 °F 83% 29.96 in 10.0 mi SSE 3.5 mph - N/A   Overcast
7:15 AM 64.4 °F 59.0 °F 83% 29.97 in 10.0 mi SSE 3.5 mph - N/A   Overcast
7:35 AM 64.4 °F 59.0 °F 83% 29.96 in 10.0 mi SSE 4.6 mph - N/A   Overcast
7:55 AM 64.4 °F 59.0 °F 83% 29.97 in 10.0 mi South 4.6 mph - N/A   Overcast
8:15 AM 64.4 °F 59.0 °F 83% 29.98 in 10.0 mi South 3.5 mph - N/A   Overcast
8:35 AM 64.4 °F 59.0 °F 83% 29.98 in 10.0 mi South 3.5 mph - N/A   Overcast
8:55 AM 66.2 °F 59.0 °F 78% 29.98 in 10.0 mi South 4.6 mph - N/A   Overcast
9:15 AM 66.2 °F 59.0 °F 78% 29.98 in 10.0 mi South 4.6 mph - N/A   Overcast
9:35 AM 68.0 °F 59.0 °F 73% 29.98 in 10.0 mi South 5.8 mph - N/A   Overcast
9:55 AM 68.0 °F 59.0 °F 73% 29.97 in 10.0 mi South 6.9 mph - N/A   Overcast
10:15 AM 69.8 °F 59.0 °F 68% 29.98 in 10.0 mi SSW 4.6 mph - N/A   Overcast
10:35 AM 69.8 °F 59.0 °F 68% 29.98 in 10.0 mi SW 6.9 mph - N/A   Overcast
10:55 AM 68.0 °F 57.2 °F 68% 29.98 in 10.0 mi South 5.8 mph - N/A   Overcast
11:15 AM 68.0 °F 59.0 °F 73% 29.98 in 10.0 mi SSW 3.5 mph - N/A Rain Light Rain
11:35 AM 68.0 °F 59.0 °F 73% 29.98 in 10.0 mi South 5.8 mph - N/A   Overcast
11:55 AM 69.8 °F 59.0 °F 68% 29.97 in 10.0 mi South 3.5 mph - N/A   Overcast
12:15 PM 71.6 °F 60.8 °F 69% 29.96 in 10.0 mi SSE 3.5 mph - N/A   Overcast
12:35 PM 71.6 °F 59.0 °F 64% 29.96 in 10.0 mi South 6.9 mph - N/A   Overcast
12:55 PM 71.6 °F 59.0 °F 64% 29.97 in 10.0 mi South 6.9 mph - N/A   Overcast
1:15 PM 71.6 °F 60.8 °F 69% 29.97 in 10.0 mi South 5.8 mph - N/A   Overcast
1:35 PM 73.4 °F 62.6 °F 69% 29.97 in 10.0 mi Calm Calm - N/A   Overcast
1:55 PM 75.2 °F 62.6 °F 65% 29.96 in 10.0 mi SSW 6.9 mph - N/A   Overcast
2:15 PM 78.8 °F 60.8 °F 54% 29.95 in 10.0 mi SSW 4.6 mph - N/A   Mostly Cloudy
2:35 PM 78.8 °F 60.8 °F 54% 29.95 in 10.0 mi SW 9.2 mph - N/A   Scattered Clouds
2:55 PM 78.8 °F 60.8 °F 54% 29.95 in 10.0 mi SSW 4.6 mph - N/A   Mostly Cloudy
3:15 PM 78.8 °F 60.8 °F 54% 29.95 in 10.0 mi SSW 10.4 mph - N/A   Overcast
3:35 PM 78.8 °F 60.8 °F 54% 29.95 in 10.0 mi SSW 8.1 mph - N/A   Overcast
3:55 PM 77.0 °F 60.8 °F 57% 29.94 in 10.0 mi SSW 9.2 mph - N/A   Overcast
4:15 PM 77.0 °F 60.8 °F 57% 29.94 in 10.0 mi SSW 5.8 mph - N/A   Overcast
4:35 PM 77.0 °F 62.6 °F 61% 29.94 in 10.0 mi SW 4.6 mph - N/A   Overcast
4:55 PM 78.8 °F 62.6 °F 57% 29.93 in 10.0 mi South 4.6 mph - N/A   Overcast
5:15 PM 77.0 °F 62.6 °F 61% 29.93 in 10.0 mi SSW 6.9 mph - N/A   Mostly Cloudy
5:35 PM 78.8 °F 62.6 °F 57% 29.93 in 10.0 mi South 5.8 mph - N/A   Mostly Cloudy
5:55 PM 77.0 °F 62.6 °F 61% 29.93 in 10.0 mi SSW 5.8 mph - N/A   Overcast
6:15 PM 77.0 °F 62.6 °F 61% 29.93 in 10.0 mi SSW 6.9 mph - N/A   Overcast
6:35 PM 77.0 °F 62.6 °F 61% 29.93 in 10.0 mi South 5.8 mph - N/A   Overcast
6:55 PM 78.8 °F 62.6 °F 57% 29.93 in 10.0 mi South 8.1 mph - N/A   Mostly Cloudy
7:15 PM 77.0 °F 60.8 °F 57% 29.92 in 10.0 mi South 8.1 mph 17.3 mph N/A   Scattered Clouds
7:35 PM 77.0 °F 62.6 °F 61% 29.92 in 10.0 mi South 4.6 mph - N/A   Scattered Clouds
7:55 PM 77.0 °F 62.6 °F 61% 29.93 in 10.0 mi SSW 4.6 mph - N/A   Mostly Cloudy
8:15 PM 75.2 °F 62.6 °F 65% 29.93 in 10.0 mi SSW 3.5 mph - N/A   Mostly Cloudy
8:35 PM 75.2 °F 62.6 °F 65% 29.93 in 10.0 mi South 3.5 mph - N/A   Mostly Cloudy
8:55 PM 73.4 °F 62.6 °F 69% 29.93 in 10.0 mi South 3.5 mph - N/A   Scattered Clouds
9:15 PM 73.4 °F 60.8 °F 65% 29.93 in 10.0 mi SSE 3.5 mph - N/A   Clear
9:35 PM 71.6 °F 62.6 °F 73% 29.93 in 10.0 mi Calm Calm - N/A   Clear
9:55 PM 69.8 °F 62.6 °F 78% 29.93 in 10.0 mi Calm Calm - N/A   Clear
10:15 PM 68.0 °F 62.6 °F 83% 29.93 in 10.0 mi Calm Calm - N/A   Clear
10:35 PM 68.0 °F 62.6 °F 83% 29.93 in 10.0 mi Calm Calm - N/A   Clear
10:55 PM 66.2 °F 60.8 °F 83% 29.93 in 10.0 mi Calm Calm - N/A   Clear
11:15 PM 66.2 °F 62.6 °F 88% 29.93 in 10.0 mi Calm Calm - N/A   Clear
11:35 PM 66.2 °F 60.8 °F 83% 29.93 in 10.0 mi Calm Calm - N/A   Clear
11:55 PM 66.2 °F 62.6 °F 88% 29.92 in 10.0 mi Calm Calm - N/A   Clear